GEFSSE_prec_meanprecacc_012.txt.gz
Total_Precipitation_Accumulation
0.00 0.00 0.02 0.02 0.00 0.00 0.01 0.01 0.02 0.02 0.03 0.04 0.05 0.05 0.04 0.02 0.01 0.02 0.03 0.02 0.02 0.01 0.00 0.01 0.03 0.02 0.00 0.00 0.00 0.00 0.00 0.00 0.01 0.00 0.00 0.00 0.00 0.00 0.00 0.00 0.00 0.00 0.00
0.00 0.00 0.01 0.01 0.00 0.00 0.00 0.00 0.01 0.02 0.02 0.03 0.04 0.03 0.02 0.01 0.01 0.01 0.03 0.05 0.04 0.02 0.00 0.00 0.01 0.00 0.01 0.01 0.00 0.00 0.00 0.00 0.00 0.00 0.00 0.00 0.00 0.00 0.00 0.00 0.00 0.00 0.00
0.00 0.00 0.01 0.01 0.01 0.00 0.00 0.00 0.01 0.02 0.02 0.02 0.02 0.02 0.01 0.01 0.01 0.01 0.02 0.08 0.10 0.08 0.04 0.01 0.00 0.00 0.01 0.01 0.01 0.00 0.01 0.00 0.00 0.00 0.00 0.00 0.00 0.00 0.01 0.00 0.00 0.00 0.00
0.00 0.00 0.00 0.01 0.00 0.00 0.00 0.00 0.01 0.01 0.01 0.01 0.02 0.02 0.01 0.01 0.01 0.01 0.02 0.05 0.08 0.07 0.06 0.02 0.01 0.00 0.00 0.00 0.01 0.01 0.02 0.01 0.01 0.01 0.00 0.00 0.00 0.01 0.02 0.01 0.00 0.00 0.00
0.00 0.00 0.01 0.01 0.00 0.00 0.00 0.00 0.01 0.01 0.00 0.00 0.00 0.01 0.02 0.02 0.01 0.01 0.02 0.03 0.03 0.03 0.04 0.04 0.02 0.01 0.01 0.00 0.00 0.01 0.02 0.01 0.01 0.01 0.01 0.00 0.00 0.01 0.01 0.01 0.00 0.00 0.00
0.00 0.00 0.01 0.01 0.00 0.00 0.00 0.00 0.00 0.00 0.00 0.00 0.00 0.00 0.01 0.01 0.01 0.02 0.02 0.03 0.04 0.05 0.04 0.05 0.05 0.05 0.04 0.02 0.01 0.01 0.01 0.02 0.02 0.02 0.03 0.00 0.00 0.00 0.00 0.00 0.00 0.00 0.00
0.00 0.00 0.01 0.01 0.01 0.01 0.01 0.00 0.00 0.00 0.00 0.00 0.00 0.00 0.00 0.01 0.01 0.02 0.02 0.03 0.03 0.06 0.06 0.06 0.06 0.04 0.07 0.06 0.03 0.02 0.01 0.02 0.02 0.01 0.01 0.00 0.00 0.00 0.00 0.00 0.01 0.01 0.00
0.00 0.00 0.01 0.01 0.01 0.00 0.01 0.00 0.00 0.00 0.00 0.00 0.00 0.00 0.00 0.00 0.00 0.01 0.02 0.02 0.01 0.02 0.04 0.05 0.08 0.06 0.04 0.08 0.06 0.03 0.03 0.05 0.03 0.01 0.00 0.01 0.02 0.03 0.01 0.01 0.02 0.01 0.00
0.00 0.00 0.00 0.01 0.01 0.01 0.00 0.00 0.00 0.00 0.00 0.00 0.00 0.00 0.00 0.00 0.00 0.00 0.00 0.00 0.00 0.00 0.01 0.01 0.02 0.03 0.02 0.05 0.08 0.07 0.05 0.06 0.06 0.03 0.01 0.01 0.03 0.06 0.04 0.03 0.02 0.01 0.01
0.00 0.00 0.00 0.00 0.00 0.00 0.00 0.00 0.00 0.00 0.00 0.00 0.00 0.00 0.00 0.00 0.00 0.00 0.00 0.00 0.00 0.00 0.00 0.00 0.00 0.01 0.01 0.02 0.05 0.10 0.12 0.07 0.03 0.01 0.01 0.00 0.03 0.08 0.11 0.09 0.06 0.03 0.03
0.01 0.00 0.00 0.00 0.00 0.00 0.00 0.00 0.00 0.00 0.00 0.00 0.00 0.00 0.00 0.00 0.00 0.00 0.00 0.00 0.01 0.02 0.04 0.04 0.03 0.03 0.02 0.01 0.03 0.10 0.13 0.04 0.01 0.00 0.01 0.01 0.02 0.09 0.16 0.21 0.15 0.09 0.08
0.00 0.00 0.00 0.00 0.00 0.01 0.01 0.00 0.00 0.00 0.00 0.00 0.00 0.00 0.00 0.00 0.00 0.00 0.00 0.03 0.07 0.08 0.10 0.14 0.15 0.10 0.04 0.01 0.01 0.06 0.03 0.01 0.01 0.01 0.04 0.02 0.04 0.07 0.17 0.39 0.42 0.30 0.23
0.00 0.00 0.00 0.00 0.01 0.01 0.01 0.01 0.00 0.00 0.00 0.00 0.00 0.00 0.00 0.00 0.00 0.00 0.00 0.02 0.04 0.04 0.04 0.09 0.10 0.05 0.02 0.01 0.01 0.03 0.03 0.01 0.00 0.01 0.07 0.08 0.08 0.14 0.25 0.50 0.68 0.58 0.43
0.00 0.00 0.00 0.00 0.00 0.01 0.00 0.00 0.00 0.00 0.00 0.00 0.00 0.00 0.00 0.00 0.00 0.00 0.00 0.00 0.01 0.01 0.02 0.03 0.02 0.01 0.01 0.03 0.02 0.03 0.03 0.04 0.03 0.06 0.13 0.20 0.12 0.12 0.25 0.45 0.73 0.79 0.56
0.00 0.00 0.00 0.00 0.00 0.00 0.00 0.00 0.00 0.00 0.00 0.00 0.00 0.00 0.00 0.00 0.00 0.00 0.01 0.02 0.03 0.01 0.01 0.01 0.00 0.01 0.01 0.01 0.01 0.01 0.01 0.01 0.04 0.10 0.10 0.20 0.21 0.27 0.45 0.62 0.74 0.77 0.60
0.00 0.00 0.00 0.00 0.00 0.00 0.00 0.00 0.00 0.00 0.00 0.00 0.00 0.00 0.00 0.00 0.00 0.00 0.00 0.01 0.03 0.02 0.01 0.00 0.00 0.00 0.00 0.00 0.00 0.00 0.00 0.00 0.01 0.03 0.02 0.06 0.25 0.41 0.48 0.59 0.74 0.76 0.62
0.00 0.00 0.00 0.00 0.00 0.00 0.00 0.00 0.00 0.00 0.00 0.00 0.00 0.00 0.00 0.00 0.01 0.01 0.01 0.00 0.04 0.05 0.02 0.01 0.00 0.00 0.00 0.00 0.00 0.01 0.01 0.01 0.02 0.05 0.09 0.13 0.21 0.29 0.36 0.40 0.57 0.70 0.65
0.01 0.00 0.00 0.01 0.01 0.00 0.00 0.00 0.01 0.00 0.00 0.00 0.00 0.00 0.01 0.00 0.01 0.02 0.01 0.00 0.03 0.06 0.01 0.00 0.00 0.00 0.00 0.00 0.01 0.00 0.00 0.01 0.02 0.05 0.10 0.18 0.19 0.12 0.20 0.31 0.38 0.47 0.57
0.04 0.02 0.01 0.01 0.02 0.02 0.01 0.01 0.01 0.01 0.01 0.01 0.01 0.01 0.01 0.01 0.01 0.02 0.02 0.02 0.04 0.04 0.01 0.00 0.00 0.00 0.00 0.00 0.00 0.00 0.00 0.00 0.00 0.01 0.06 0.11 0.11 0.11 0.12 0.21 0.40 0.40 0.52
0.11 0.11 0.08 0.06 0.07 0.07 0.05 0.02 0.02 0.02 0.01 0.01 0.01 0.01 0.01 0.02 0.04 0.03 0.03 0.05 0.06 0.04 0.04 0.02 0.00 0.00 0.00 0.00 0.00 0.01 0.00 0.00 0.00 0.01 0.02 0.05 0.09 0.10 0.09 0.13 0.16 0.20 0.30
0.21 0.26 0.20 0.18 0.18 0.14 0.10 0.08 0.08 0.09 0.08 0.06 0.04 0.04 0.03 0.03 0.06 0.06 0.06 0.07 0.07 0.05 0.11 0.07 0.01 0.00 0.00 0.00 0.01 0.01 0.00 0.00 0.00 0.00 0.00 0.00 0.03 0.10 0.13 0.22 0.27 0.31 0.30
0.36 0.42 0.44 0.47 0.45 0.33 0.26 0.22 0.22 0.27 0.23 0.17 0.13 0.09 0.07 0.06 0.06 0.06 0.08 0.09 0.06 0.06 0.13 0.09 0.02 0.02 0.04 0.05 0.01 0.00 0.00 0.00 0.01 0.00 0.00 0.00 0.02 0.05 0.10 0.19 0.31 0.39 0.33
0.68 0.73 0.79 0.83 0.74 0.56 0.46 0.36 0.32 0.35 0.34 0.31 0.27 0.17 0.11 0.11 0.12 0.10 0.09 0.13 0.07 0.07 0.09 0.10 0.06 0.05 0.10 0.08 0.04 0.02 0.01 0.01 0.01 0.00 0.00 0.00 0.01 0.03 0.03 0.06 0.10 0.10 0.09
1.02 1.22 1.27 1.21 1.05 0.86 0.71 0.55 0.43 0.36 0.29 0.25 0.25 0.19 0.15 0.17 0.19 0.17 0.14 0.12 0.09 0.09 0.07 0.11 0.14 0.12 0.09 0.04 0.04 0.06 0.07 0.04 0.01 0.00 0.00 0.00 0.01 0.03 0.06 0.05 0.05 0.02 0.02
0.92 1.11 1.25 1.22 1.11 0.95 0.79 0.60 0.40 0.29 0.22 0.21 0.20 0.15 0.15 0.22 0.21 0.21 0.19 0.17 0.18 0.18 0.14 0.16 0.18 0.14 0.06 0.02 0.01 0.03 0.03 0.02 0.01 0.01 0.01 0.01 0.00 0.01 0.04 0.03 0.03 0.02 0.03
0.72 0.80 0.88 0.91 0.86 0.76 0.63 0.49 0.40 0.33 0.28 0.25 0.22 0.17 0.16 0.16 0.15 0.17 0.20 0.23 0.23 0.19 0.13 0.13 0.15 0.11 0.04 0.03 0.02 0.01 0.01 0.01 0.01 0.01 0.01 0.01 0.01 0.00 0.00 0.00 0.01 0.03 0.07

GEFSSE_prec_meanprecacc_018.txt.gz
Total_Precipitation_Accumulation
0.00 0.00 0.03 0.02 0.01 0.00 0.01 0.02 0.04 0.05 0.06 0.07 0.10 0.10 0.07 0.04 0.03 0.03 0.03 0.03 0.03 0.03 0.03 0.03 0.05 0.04 0.05 0.05 0.03 0.01 0.00 0.00 0.01 0.00 0.01 0.00 0.00 0.00 0.00 0.00 0.00 0.00 0.00
0.00 0.00 0.02 0.02 0.01 0.00 0.00 0.01 0.02 0.03 0.04 0.05 0.08 0.09 0.06 0.03 0.03 0.02 0.04 0.06 0.04 0.03 0.03 0.04 0.04 0.03 0.04 0.04 0.03 0.01 0.00 0.00 0.00 0.00 0.01 0.00 0.00 0.00 0.00 0.00 0.00 0.00 0.00
0.00 0.00 0.02 0.02 0.01 0.00 0.00 0.01 0.02 0.02 0.02 0.02 0.04 0.04 0.02 0.02 0.02 0.02 0.03 0.08 0.11 0.09 0.05 0.03 0.02 0.02 0.02 0.02 0.01 0.01 0.01 0.00 0.00 0.01 0.00 0.00 0.00 0.00 0.01 0.00 0.00 0.00 0.00
0.00 0.00 0.01 0.02 0.01 0.01 0.00 0.00 0.01 0.01 0.01 0.02 0.03 0.03 0.02 0.01 0.02 0.02 0.03 0.06 0.09 0.07 0.06 0.03 0.02 0.02 0.01 0.01 0.01 0.01 0.02 0.01 0.01 0.01 0.00 0.00 0.00 0.01 0.02 0.01 0.00 0.00 0.00
0.00 0.00 0.02 0.02 0.01 0.01 0.00 0.01 0.01 0.01 0.01 0.01 0.01 0.01 0.02 0.03 0.03 0.03 0.03 0.04 0.05 0.03 0.04 0.04 0.03 0.02 0.01 0.01 0.01 0.02 0.02 0.01 0.01 0.01 0.01 0.00 0.01 0.02 0.01 0.01 0.00 0.00 0.00
0.00 0.00 0.02 0.02 0.01 0.01 0.01 0.01 0.01 0.01 0.00 0.00 0.00 0.01 0.01 0.02 0.03 0.04 0.04 0.06 0.08 0.07 0.05 0.05 0.05 0.06 0.04 0.02 0.02 0.01 0.02 0.02 0.02 0.02 0.03 0.00 0.01 0.02 0.01 0.01 0.00 0.00 0.00
0.00 0.01 0.02 0.01 0.01 0.01 0.01 0.01 0.01 0.01 0.00 0.00 0.00 0.00 0.01 0.01 0.02 0.03 0.04 0.04 0.05 0.08 0.08 0.08 0.08 0.06 0.08 0.07 0.04 0.03 0.02 0.04 0.03 0.01 0.01 0.00 0.00 0.01 0.01 0.01 0.01 0.01 0.00
0.00 0.01 0.01 0.02 0.01 0.01 0.01 0.01 0.01 0.01 0.00 0.00 0.00 0.00 0.00 0.01 0.01 0.02 0.03 0.03 0.01 0.02 0.04 0.07 0.11 0.09 0.07 0.11 0.09 0.06 0.05 0.06 0.05 0.02 0.01 0.01 0.02 0.03 0.03 0.03 0.03 0.03 0.01
0.00 0.00 0.01 0.01 0.01 0.01 0.01 0.01 0.01 0.01 0.00 0.00 0.00 0.00 0.00 0.00 0.01 0.01 0.01 0.01 0.00 0.00 0.02 0.02 0.03 0.04 0.05 0.08 0.12 0.11 0.08 0.08 0.09 0.10 0.05 0.05 0.06 0.07 0.08 0.07 0.06 0.05 0.03
0.01 0.00 0.01 0.01 0.01 0.01 0.00 0.01 0.01 0.01 0.00 0.00 0.00 0.00 0.00 0.00 0.00 0.00 0.00 0.00 0.00 0.00 0.00 0.01 0.01 0.02 0.03 0.05 0.08 0.15 0.18 0.12 0.04 0.06 0.13 0.08 0.06 0.12 0.19 0.19 0.17 0.12 0.10
0.01 0.01 0.01 0.00 0.00 0.00 0.00 0.00 0.00 0.00 0.00 0.00 0.00 0.00 0.00 0.00 0.00 0.00 0.00 0.00 0.01 0.02 0.04 0.04 0.04 0.04 0.04 0.04 0.07 0.17 0.20 0.09 0.03 0.05 0.08 0.05 0.04 0.15 0.28 0.35 0.34 0.29 0.25
0.01 0.01 0.01 0.00 0.00 0.01 0.01 0.00 0.00 0.00 0.00 0.00 0.00 0.00 0.00 0.00 0.00 0.00 0.00 0.03 0.07 0.11 0.14 0.20 0.21 0.14 0.10 0.09 0.10 0.12 0.08 0.05 0.05 0.06 0.09 0.05 0.07 0.13 0.27 0.52 0.58 0.51 0.47
0.00 0.00 0.00 0.00 0.01 0.01 0.01 0.01 0.00 0.00 0.00 0.00 0.00 0.00 0.00 0.00 0.00 0.00 0.00 0.02 0.06 0.07 0.09 0.16 0.17 0.13 0.11 0.12 0.09 0.09 0.06 0.02 0.02 0.02 0.08 0.09 0.11 0.22 0.39 0.67 0.85 0.79 0.70
0.00 0.00 0.00 0.00 0.01 0.01 0.00 0.00 0.00 0.00 0.00 0.00 0.00 0.00 0.00 0.00 0.00 0.01 0.02 0.01 0.03 0.05 0.08 0.09 0.07 0.05 0.04 0.06 0.06 0.06 0.07 0.10 0.08 0.12 0.20 0.21 0.14 0.21 0.44 0.69 0.96 1.02 0.82
0.00 0.00 0.00 0.00 0.01 0.01 0.01 0.00 0.00 0.00 0.00 0.00 0.00 0.00 0.00 0.00 0.02 0.04 0.06 0.08 0.06 0.03 0.04 0.06 0.04 0.03 0.03 0.03 0.03 0.03 0.03 0.04 0.07 0.17 0.20 0.23 0.24 0.33 0.57 0.82 0.99 1.03 0.87
0.00 0.00 0.00 0.00 0.00 0.01 0.00 0.00 0.00 0.00 0.00 0.00 0.00 0.00 0.00 0.01 0.06 0.09 0.08 0.10 0.09 0.06 0.06 0.07 0.06 0.05 0.03 0.02 0.01 0.00 0.00 0.01 0.02 0.05 0.06 0.08 0.25 0.42 0.50 0.64 0.84 0.93 0.86
0.00 0.00 0.00 0.00 0.00 0.00 0.00 0.00 0.00 0.00 0.00 0.00 0.00 0.00 0.01 0.02 0.10 0.12 0.09 0.08 0.11 0.11 0.12 0.12 0.09 0.07 0.03 0.01 0.00 0.01 0.01 0.02 0.02 0.06 0.09 0.14 0.21 0.29 0.36 0.40 0.59 0.76 0.77
0.02 0.01 0.00 0.01 0.01 0.00 0.01 0.01 0.01 0.01 0.01 0.01 0.00 0.01 0.01 0.03 0.08 0.14 0.10 0.06 0.10 0.13 0.12 0.14 0.10 0.06 0.03 0.02 0.01 0.01 0.01 0.01 0.03 0.05 0.11 0.19 0.19 0.12 0.20 0.31 0.38 0.49 0.61
0.05 0.03 0.02 0.01 0.02 0.04 0.06 0.08 0.04 0.04 0.03 0.03 0.03 0.04 0.05 0.05 0.07 0.15 0.14 0.12 0.09 0.13 0.10 0.07 0.04 0.04 0.03 0.04 0.01 0.01 0.00 0.00 0.01 0.01 0.06 0.11 0.11 0.11 0.13 0.22 0.40 0.41 0.53
0.13 0.12 0.09 0.09 0.14 0.26 0.33 0.28 0.20 0.13 0.09 0.09 0.08 0.08 0.07 0.09 0.11 0.18 0.18 0.19 0.13 0.14 0.15 0.10 0.08 0.08 0.05 0.04 0.01 0.01 0.01 0.00 0.00 0.01 0.03 0.06 0.09 0.10 0.10 0.13 0.16 0.21 0.31
0.24 0.29 0.27 0.32 0.49 0.57 0.48 0.46 0.44 0.38 0.28 0.21 0.15 0.13 0.12 0.11 0.16 0.24 0.22 0.27 0.21 0.19 0.25 0.15 0.10 0.07 0.07 0.04 0.02 0.02 0.01 0.00 0.00 0.00 0.00 0.01 0.03 0.10 0.13 0.22 0.28 0.32 0.31
0.41 0.54 0.68 0.89 0.99 0.86 0.83 0.84 0.79 0.73 0.54 0.39 0.29 0.24 0.20 0.18 0.19 0.21 0.30 0.30 0.24 0.22 0.29 0.24 0.15 0.09 0.10 0.09 0.04 0.02 0.01 0.01 0.01 0.00 0.00 0.00 0.02 0.06 0.10 0.19 0.31 0.40 0.34
0.78 0.93 1.11 1.29 1.25 1.06 0.99 0.93 0.83 0.79 0.68 0.57 0.49 0.35 0.27 0.25 0.26 0.26 0.26 0.33 0.27 0.25 0.29 0.33 0.22 0.17 0.20 0.16 0.11 0.07 0.04 0.03 0.02 0.00 0.01 0.00 0.01 0.03 0.03 0.06 0.10 0.10 0.09
1.14 1.39 1.51 1.51 1.39 1.22 1.10 1.00 0.93 0.84 0.68 0.55 0.45 0.34 0.29 0.29 0.31 0.30 0.30 0.31 0.30 0.29 0.28 0.30 0.29 0.29 0.23 0.17 0.16 0.16 0.14 0.08 0.04 0.02 0.02 0.01 0.01 0.03 0.06 0.05 0.05 0.02 0.03
0.96 1.19 1.35 1.36 1.26 1.10 0.99 0.88 0.76 0.63 0.51 0.43 0.35 0.28 0.26 0.31 0.29 0.31 0.31 0.34 0.36 0.36 0.33 0.34 0.35 0.33 0.23 0.18 0.16 0.14 0.12 0.09 0.06 0.05 0.05 0.04 0.01 0.01 0.04 0.03 0.03 0.03 0.04
0.74 0.84 0.93 0.97 0.92 0.83 0.73 0.65 0.65 0.62 0.56 0.48 0.41 0.33 0.31 0.28 0.25 0.25 0.27 0.33 0.35 0.32 0.29 0.29 0.31 0.30 0.23 0.19 0.16 0.11 0.09 0.08 0.10 0.08 0.07 0.07 0.04 0.00 0.00 0.00 0.01 0.04 0.08

GEFSSE_prec_meanprecacc_024.txt.gz
Total_Precipitation_Accumulation
0.00 0.00 0.03 0.02 0.01 0.01 0.01 0.03 0.05 0.05 0.06 0.07 0.10 0.10 0.07 0.04 0.03 0.03 0.03 0.03 0.03 0.03 0.03 0.03 0.05 0.05 0.06 0.06 0.04 0.01 0.00 0.00 0.01 0.00 0.01 0.00 0.00 0.00 0.00 0.00 0.01 0.00 0.00
0.00 0.00 0.02 0.02 0.01 0.01 0.02 0.03 0.04 0.03 0.04 0.05 0.08 0.09 0.06 0.04 0.03 0.02 0.04 0.06 0.05 0.03 0.04 0.04 0.04 0.04 0.05 0.05 0.03 0.01 0.00 0.00 0.00 0.00 0.01 0.00 0.00 0.00 0.00 0.00 0.00 0.00 0.00
0.00 0.00 0.02 0.02 0.01 0.01 0.01 0.03 0.05 0.04 0.03 0.03 0.04 0.05 0.03 0.03 0.03 0.02 0.03 0.09 0.11 0.09 0.06 0.03 0.02 0.02 0.02 0.02 0.02 0.01 0.01 0.00 0.00 0.01 0.00 0.00 0.00 0.00 0.01 0.00 0.00 0.00 0.00
0.00 0.00 0.01 0.02 0.01 0.01 0.00 0.01 0.03 0.04 0.04 0.04 0.05 0.05 0.04 0.03 0.03 0.03 0.03 0.06 0.09 0.07 0.07 0.03 0.02 0.02 0.01 0.01 0.01 0.01 0.02 0.01 0.01 0.01 0.00 0.02 0.01 0.01 0.02 0.01 0.00 0.00 0.00
0.00 0.00 0.02 0.02 0.01 0.01 0.00 0.01 0.02 0.03 0.04 0.05 0.05 0.05 0.06 0.06 0.05 0.05 0.04 0.05 0.06 0.04 0.04 0.04 0.03 0.02 0.01 0.01 0.01 0.02 0.02 0.01 0.01 0.01 0.01 0.03 0.02 0.02 0.02 0.01 0.00 0.00 0.00
0.00 0.00 0.02 0.02 0.01 0.01 0.01 0.01 0.01 0.02 0.03 0.04 0.04 0.04 0.05 0.05 0.06 0.06 0.05 0.07 0.09 0.08 0.05 0.06 0.06 0.06 0.05 0.02 0.02 0.02 0.02 0.02 0.02 0.02 0.03 0.01 0.04 0.05 0.01 0.01 0.00 0.00 0.00
0.00 0.01 0.02 0.02 0.01 0.01 0.01 0.01 0.01 0.02 0.02 0.03 0.03 0.03 0.03 0.03 0.04 0.04 0.05 0.06 0.06 0.09 0.08 0.09 0.09 0.06 0.08 0.07 0.04 0.03 0.02 0.04 0.03 0.01 0.01 0.00 0.03 0.03 0.01 0.01 0.01 0.01 0.00
0.00 0.01 0.02 0.02 0.01 0.01 0.01 0.01 0.01 0.01 0.02 0.02 0.02 0.01 0.01 0.01 0.02 0.03 0.04 0.03 0.02 0.02 0.04 0.07 0.11 0.09 0.07 0.11 0.09 0.06 0.05 0.06 0.06 0.03 0.01 0.02 0.04 0.04 0.05 0.05 0.04 0.03 0.02
0.00 0.00 0.01 0.01 0.01 0.01 0.01 0.01 0.01 0.01 0.01 0.01 0.01 0.01 0.00 0.00 0.01 0.01 0.01 0.01 0.00 0.00 0.02 0.02 0.03 0.04 0.05 0.08 0.12 0.11 0.08 0.08 0.10 0.14 0.07 0.11 0.14 0.12 0.13 0.11 0.10 0.08 0.07
0.01 0.00 0.01 0.01 0.01 0.01 0.01 0.01 0.01 0.01 0.01 0.01 0.01 0.00 0.00 0.00 0.00 0.00 0.00 0.00 0.00 0.00 0.00 0.01 0.01 0.02 0.03 0.05 0.08 0.16 0.18 0.12 0.04 0.07 0.16 0.14 0.10 0.18 0.26 0.25 0.25 0.22 0.20
0.01 0.01 0.01 0.00 0.01 0.01 0.01 0.00 0.00 0.00 0.00 0.00 0.00 0.00 0.00 0.00 0.01 0.02 0.01 0.01 0.01 0.02 0.04 0.04 0.04 0.04 0.04 0.04 0.08 0.18 0.21 0.09 0.03 0.05 0.10 0.08 0.08 0.20 0.35 0.42 0.43 0.41 0.39
0.01 0.01 0.01 0.00 0.00 0.01 0.01 0.00 0.00 0.00 0.00 0.00 0.01 0.01 0.00 0.00 0.01 0.02 0.01 0.03 0.07 0.11 0.14 0.20 0.21 0.15 0.11 0.15 0.32 0.27 0.09 0.05 0.05 0.06 0.09 0.06 0.10 0.18 0.31 0.56 0.64 0.59 0.56
0.00 0.00 0.00 0.00 0.01 0.01 0.01 0.01 0.00 0.00 0.00 0.00 0.01 0.01 0.01 0.00 0.00 0.00 0.01 0.04 0.07 0.08 0.14 0.25 0.24 0.17 0.17 0.24 0.24 0.22 0.07 0.02 0.02 0.03 0.11 0.12 0.13 0.25 0.41 0.68 0.88 0.84 0.76
0.00 0.00 0.00 0.00 0.01 0.01 0.00 0.00 0.00 0.00 0.00 0.00 0.00 0.00 0.00 0.00 0.01 0.02 0.05 0.07 0.11 0.13 0.20 0.22 0.24 0.13 0.09 0.09 0.07 0.09 0.10 0.12 0.08 0.14 0.27 0.23 0.15 0.21 0.45 0.70 0.98 1.06 0.86
0.00 0.00 0.00 0.00 0.01 0.01 0.01 0.00 0.00 0.00 0.00 0.00 0.00 0.00 0.00 0.01 0.05 0.11 0.13 0.14 0.12 0.12 0.18 0.21 0.14 0.13 0.10 0.07 0.05 0.04 0.05 0.05 0.07 0.21 0.27 0.27 0.25 0.34 0.58 0.83 1.00 1.04 0.89
0.00 0.00 0.00 0.00 0.00 0.01 0.01 0.00 0.00 0.00 0.00 0.00 0.00 0.00 0.00 0.03 0.12 0.17 0.16 0.18 0.14 0.12 0.20 0.23 0.17 0.18 0.10 0.06 0.03 0.01 0.01 0.02 0.03 0.07 0.11 0.17 0.29 0.42 0.50 0.64 0.85 0.93 0.86
0.00 0.00 0.00 0.00 0.00 0.01 0.01 0.00 0.00 0.00 0.00 0.00 0.00 0.00 0.01 0.04 0.15 0.18 0.19 0.18 0.18 0.17 0.25 0.24 0.19 0.17 0.10 0.06 0.03 0.01 0.01 0.02 0.03 0.06 0.11 0.18 0.25 0.32 0.37 0.41 0.59 0.76 0.77
0.02 0.01 0.00 0.01 0.01 0.01 0.02 0.04 0.03 0.02 0.01 0.01 0.00 0.01 0.02 0.05 0.12 0.20 0.18 0.16 0.19 0.20 0.24 0.27 0.20 0.17 0.16 0.10 0.06 0.02 0.01 0.02 0.03 0.06 0.12 0.20 0.20 0.14 0.23 0.34 0.39 0.49 0.61
0.05 0.03 0.02 0.01 0.03 0.07 0.14 0.18 0.14 0.11 0.08 0.06 0.05 0.07 0.08 0.08 0.12 0.24 0.23 0.21 0.14 0.23 0.20 0.16 0.17 0.19 0.20 0.17 0.05 0.06 0.02 0.01 0.01 0.02 0.06 0.11 0.11 0.12 0.14 0.23 0.41 0.41 0.53
0.13 0.12 0.09 0.09 0.16 0.34 0.50 0.48 0.44 0.33 0.25 0.19 0.15 0.13 0.13 0.15 0.17 0.27 0.27 0.28 0.21 0.28 0.29 0.22 0.24 0.24 0.21 0.17 0.04 0.05 0.02 0.00 0.00 0.01 0.03 0.06 0.10 0.10 0.10 0.14 0.18 0.22 0.31
0.26 0.31 0.29 0.35 0.56 0.71 0.65 0.67 0.72 0.68 0.55 0.38 0.24 0.19 0.18 0.17 0.23 0.34 0.30 0.39 0.33 0.33 0.41 0.31 0.33 0.29 0.25 0.22 0.14 0.10 0.02 0.00 0.00 0.00 0.00 0.01 0.03 0.10 0.13 0.22 0.29 0.33 0.31
0.46 0.59 0.73 0.97 1.13 1.00 0.99 1.07 1.05 0.98 0.72 0.53 0.38 0.30 0.25 0.24 0.26 0.29 0.41 0.42 0.37 0.38 0.47 0.44 0.36 0.27 0.25 0.28 0.25 0.18 0.11 0.10 0.07 0.01 0.00 0.00 0.02 0.06 0.10 0.19 0.31 0.40 0.34
0.86 1.02 1.23 1.45 1.40 1.20 1.17 1.13 0.96 0.92 0.78 0.65 0.56 0.42 0.31 0.29 0.32 0.33 0.37 0.45 0.41 0.40 0.48 0.54 0.42 0.36 0.37 0.37 0.39 0.30 0.24 0.23 0.13 0.02 0.01 0.00 0.01 0.03 0.03 0.06 0.10 0.10 0.10
1.20 1.49 1.65 1.63 1.53 1.36 1.28 1.16 1.06 0.93 0.76 0.65 0.55 0.41 0.34 0.33 0.36 0.37 0.38 0.43 0.44 0.43 0.44 0.44 0.46 0.51 0.44 0.36 0.41 0.43 0.40 0.31 0.20 0.11 0.05 0.02 0.02 0.03 0.06 0.05 0.05 0.03 0.03
1.02 1.28 1.46 1.48 1.40 1.24 1.13 1.02 0.88 0.73 0.62 0.53 0.42 0.35 0.34 0.39 0.36 0.36 0.38 0.44 0.48 0.50 0.47 0.49 0.54 0.53 0.44 0.37 0.36 0.35 0.37 0.35 0.26 0.20 0.16 0.11 0.05 0.01 0.04 0.03 0.03 0.03 0.05
0.81 0.91 1.03 1.08 1.03 0.93 0.83 0.75 0.74 0.72 0.67 0.58 0.50 0.43 0.41 0.39 0.33 0.32 0.33 0.41 0.46 0.46 0.45 0.46 0.49 0.48 0.42 0.39 0.35 0.32 0.31 0.28 0.30 0.28 0.23 0.21 0.15 0.02 0.01 0.00 0.01 0.04 0.09

GEFSSE_prec_meanprecacc_030.txt.gz
Total_Precipitation_Accumulation
0.00 0.00 0.03 0.02 0.01 0.01 0.01 0.03 0.05 0.05 0.06 0.07 0.10 0.10 0.07 0.04 0.03 0.03 0.03 0.03 0.03 0.03 0.03 0.03 0.05 0.05 0.06 0.06 0.04 0.01 0.00 0.00 0.01 0.00 0.01 0.00 0.00 0.00 0.00 0.00 0.01 0.00 0.00
0.00 0.00 0.02 0.02 0.01 0.01 0.02 0.03 0.04 0.03 0.04 0.05 0.08 0.09 0.06 0.04 0.03 0.02 0.04 0.06 0.05 0.03 0.04 0.04 0.04 0.04 0.05 0.05 0.03 0.01 0.00 0.00 0.00 0.00 0.01 0.00 0.00 0.00 0.00 0.00 0.00 0.00 0.00
0.00 0.00 0.02 0.02 0.01 0.01 0.01 0.03 0.05 0.04 0.03 0.03 0.04 0.05 0.03 0.03 0.03 0.02 0.03 0.09 0.11 0.09 0.06 0.03 0.02 0.02 0.02 0.02 0.02 0.01 0.01 0.00 0.00 0.01 0.01 0.01 0.01 0.00 0.01 0.01 0.00 0.00 0.00
0.00 0.00 0.01 0.02 0.01 0.01 0.00 0.01 0.03 0.04 0.04 0.05 0.07 0.05 0.04 0.04 0.03 0.03 0.03 0.06 0.09 0.07 0.07 0.03 0.02 0.02 0.01 0.01 0.01 0.01 0.02 0.01 0.01 0.01 0.01 0.07 0.07 0.03 0.02 0.02 0.01 0.00 0.00
0.00 0.00 0.02 0.02 0.01 0.01 0.00 0.01 0.02 0.03 0.05 0.07 0.08 0.07 0.07 0.06 0.05 0.05 0.04 0.05 0.06 0.04 0.04 0.04 0.03 0.02 0.01 0.01 0.01 0.02 0.02 0.01 0.01 0.01 0.03 0.08 0.09 0.05 0.03 0.02 0.01 0.00 0.00
0.00 0.00 0.02 0.02 0.01 0.01 0.01 0.01 0.01 0.03 0.04 0.05 0.05 0.05 0.05 0.05 0.06 0.06 0.05 0.07 0.09 0.08 0.05 0.06 0.06 0.07 0.05 0.02 0.02 0.02 0.02 0.02 0.02 0.02 0.03 0.03 0.07 0.06 0.02 0.02 0.01 0.01 0.00
0.00 0.01 0.02 0.02 0.01 0.01 0.01 0.01 0.01 0.02 0.03 0.03 0.03 0.03 0.03 0.03 0.04 0.04 0.05 0.06 0.06 0.09 0.08 0.09 0.09 0.07 0.08 0.07 0.04 0.03 0.02 0.04 0.03 0.01 0.01 0.02 0.06 0.05 0.05 0.04 0.04 0.02 0.01
0.00 0.01 0.02 0.02 0.01 0.01 0.01 0.01 0.01 0.01 0.02 0.02 0.02 0.02 0.01 0.01 0.02 0.03 0.04 0.03 0.02 0.02 0.04 0.07 0.11 0.09 0.07 0.11 0.09 0.06 0.05 0.06 0.06 0.03 0.02 0.05 0.08 0.09 0.11 0.11 0.09 0.06 0.03
0.00 0.00 0.01 0.01 0.01 0.01 0.01 0.01 0.01 0.01 0.01 0.01 0.01 0.01 0.01 0.00 0.01 0.01 0.01 0.01 0.00 0.00 0.02 0.02 0.03 0.04 0.05 0.08 0.12 0.11 0.08 0.08 0.10 0.14 0.08 0.14 0.18 0.19 0.25 0.24 0.20 0.16 0.13
0.01 0.00 0.01 0.01 0.01 0.01 0.01 0.01 0.01 0.01 0.01 0.01 0.01 0.00 0.00 0.00 0.00 0.00 0.00 0.00 0.00 0.00 0.00 0.01 0.01 0.02 0.03 0.05 0.08 0.16 0.19 0.12 0.04 0.07 0.16 0.15 0.14 0.28 0.42 0.41 0.39 0.35 0.32
0.01 0.01 0.01 0.00 0.01 0.01 0.01 0.00 0.00 0.00 0.00 0.00 0.00 0.00 0.00 0.00 0.01 0.02 0.01 0.01 0.01 0.02 0.04 0.04 0.04 0.04 0.04 0.05 0.09 0.20 0.22 0.09 0.03 0.05 0.10 0.09 0.13 0.32 0.52 0.56 0.54 0.52 0.49
0.01 0.01 0.01 0.00 0.00 0.01 0.01 0.00 0.00 0.00 0.00 0.00 0.01 0.01 0.00 0.00 0.01 0.02 0.01 0.04 0.09 0.12 0.14 0.20 0.21 0.15 0.11 0.15 0.33 0.31 0.09 0.05 0.05 0.06 0.10 0.07 0.14 0.28 0.45 0.66 0.73 0.66 0.63
0.00 0.00 0.00 0.00 0.01 0.01 0.01 0.01 0.00 0.00 0.00 0.00 0.01 0.01 0.01 0.00 0.00 0.00 0.01 0.04 0.09 0.10 0.15 0.26 0.25 0.17 0.18 0.24 0.24 0.23 0.08 0.02 0.02 0.04 0.12 0.13 0.17 0.32 0.50 0.75 0.94 0.89 0.80
0.00 0.00 0.00 0.00 0.01 0.01 0.00 0.00 0.00 0.00 0.00 0.00 0.00 0.00 0.00 0.00 0.01 0.03 0.06 0.08 0.11 0.13 0.20 0.23 0.25 0.14 0.11 0.11 0.09 0.11 0.12 0.13 0.10 0.16 0.27 0.24 0.17 0.24 0.50 0.76 1.02 1.09 0.89
0.00 0.00 0.00 0.00 0.01 0.01 0.01 0.00 0.00 0.00 0.00 0.00 0.00 0.00 0.00 0.01 0.05 0.11 0.13 0.15 0.12 0.13 0.19 0.22 0.15 0.15 0.12 0.09 0.07 0.08 0.08 0.06 0.08 0.21 0.28 0.27 0.26 0.35 0.60 0.85 1.03 1.07 0.93
0.00 0.00 0.00 0.00 0.00 0.01 0.01 0.00 0.00 0.00 0.00 0.00 0.00 0.00 0.00 0.03 0.12 0.17 0.16 0.18 0.14 0.13 0.20 0.23 0.17 0.19 0.12 0.08 0.05 0.03 0.03 0.03 0.03 0.07 0.11 0.17 0.30 0.43 0.51 0.67 0.89 0.98 0.91
0.00 0.00 0.00 0.00 0.00 0.01 0.01 0.00 0.00 0.00 0.00 0.00 0.00 0.00 0.01 0.04 0.15 0.18 0.19 0.18 0.19 0.18 0.26 0.25 0.20 0.19 0.12 0.08 0.06 0.04 0.03 0.04 0.04 0.07 0.12 0.20 0.25 0.33 0.39 0.45 0.65 0.81 0.81
0.02 0.01 0.00 0.01 0.01 0.01 0.02 0.04 0.03 0.02 0.01 0.01 0.01 0.01 0.02 0.05 0.12 0.21 0.18 0.16 0.19 0.21 0.25 0.28 0.22 0.19 0.19 0.12 0.07 0.04 0.03 0.04 0.05 0.07 0.14 0.21 0.21 0.14 0.25 0.38 0.44 0.52 0.63
0.10 0.05 0.03 0.02 0.03 0.07 0.14 0.18 0.14 0.12 0.09 0.07 0.05 0.07 0.09 0.09 0.12 0.24 0.23 0.21 0.15 0.24 0.21 0.17 0.19 0.22 0.24 0.19 0.06 0.07 0.04 0.05 0.06 0.07 0.09 0.13 0.13 0.13 0.15 0.24 0.42 0.43 0.55
0.27 0.20 0.13 0.10 0.17 0.35 0.50 0.49 0.45 0.34 0.26 0.20 0.16 0.15 0.15 0.17 0.19 0.29 0.28 0.29 0.22 0.29 0.30 0.24 0.26 0.27 0.24 0.19 0.05 0.06 0.04 0.03 0.04 0.07 0.08 0.09 0.12 0.12 0.11 0.14 0.18 0.23 0.32
0.46 0.44 0.35 0.39 0.59 0.73 0.66 0.69 0.73 0.69 0.58 0.41 0.28 0.23 0.23 0.21 0.27 0.38 0.32 0.41 0.34 0.35 0.43 0.35 0.37 0.33 0.29 0.26 0.19 0.12 0.03 0.01 0.03 0.06 0.09 0.10 0.09 0.13 0.15 0.23 0.30 0.33 0.31
0.73 0.79 0.89 1.11 1.23 1.05 1.03 1.12 1.09 1.01 0.75 0.58 0.43 0.35 0.30 0.28 0.30 0.34 0.45 0.46 0.41 0.42 0.52 0.48 0.40 0.30 0.28 0.33 0.32 0.24 0.14 0.11 0.11 0.11 0.15 0.14 0.14 0.13 0.15 0.22 0.33 0.41 0.34
1.19 1.35 1.53 1.68 1.58 1.34 1.30 1.25 1.04 0.96 0.80 0.68 0.60 0.46 0.35 0.33 0.35 0.37 0.41 0.49 0.45 0.45 0.52 0.58 0.46 0.39 0.41 0.44 0.50 0.42 0.32 0.28 0.16 0.07 0.07 0.11 0.17 0.18 0.15 0.13 0.13 0.11 0.11
1.55 1.87 2.08 2.03 1.88 1.65 1.52 1.35 1.20 1.03 0.84 0.71 0.60 0.45 0.37 0.36 0.39 0.40 0.41 0.47 0.48 0.47 0.48 0.48 0.51 0.57 0.51 0.45 0.53 0.58 0.54 0.43 0.30 0.15 0.07 0.07 0.12 0.16 0.19 0.15 0.10 0.04 0.04
1.49 1.76 1.93 1.97 1.86 1.67 1.49 1.29 1.12 0.91 0.76 0.63 0.49 0.40 0.37 0.42 0.38 0.38 0.40 0.47 0.52 0.54 0.51 0.53 0.58 0.57 0.50 0.44 0.45 0.47 0.52 0.52 0.44 0.34 0.22 0.15 0.09 0.07 0.10 0.09 0.07 0.05 0.05
1.28 1.48 1.58 1.57 1.44 1.30 1.14 1.01 0.97 0.93 0.86 0.73 0.61 0.51 0.47 0.43 0.36 0.35 0.36 0.44 0.50 0.50 0.48 0.50 0.53 0.53 0.48 0.47 0.44 0.44 0.45 0.44 0.50 0.50 0.36 0.28 0.19 0.05 0.04 0.05 0.05 0.07 0.11